Weather History for Rome, NY

Change the Weather History Date:

Wednesday, October 26, 2011

  Actual Average Record
Temperature  
Mean Temperature 44 °F -  
Max Temperature 46 °F 52 °F 76 °F (1991)
Min Temperature 42 °F 37 °F 24 °F (1987)
Degree Days  
Heating Degree Days 21    
Moisture  
Dew Point 43 °F    
Average Humidity 95    
Maximum Humidity 100    
Minimum Humidity 87    
Precipitation  
Precipitation 0.28 in - - ()
Sea Level Pressure  
Sea Level Pressure 29.85 in    
Wind  
Wind Speed 4 mph (East)    
Max Wind Speed 9 mph    
Max Gust Speed -    
Visibility 5 miles    
Events Rain    
Averages and records for this station are not official NWS values.
T = Trace of Precipitation, MM = Missing Value Source: NWS Daily Summary

Daily Weather History Graph

Daily Weather History Graph

Search for Another Location

Airport:

Trip Planner

Search our weather history database for the weather conditions in past years. The results will help you decide how hot, cold, wet, or windy it might be!

Date:

Astronomy

Oct. 26, 2011 Rise Set
Actual Time 7:28 AM EDT 6:01 PM EDT
Civil Twilight 6:59 AM EDT 6:31 PM EDT
Nautical Twilight 6:25 AM EDT 7:04 PM EDT
Astronomical Twilight 5:52 AM EDT 7:37 PM EDT
Moon 7:14 AM EDT (10/26) 5:40 PM EDT (10/26)
Length of Visible Light 11h 31m
Length of Day
10h 33m
Waning Crescent, 0% of the Moon is Illuminated
Oct 26
Waning Crescent
Oct 26
New
Nov 2
First Quarter
Nov 10
Full
Nov 18
Last Quarter

Hourly Weather History & Observations

Time (EDT) Temp. Windchill Dew Point Humidity Pressure Visibility Wind Dir Wind Speed Gust Speed Precip Events Conditions
12:46 AM 42.8 °F - 41.0 °F 93% 30.04 in 7.0 mi Calm Calm - 0.01 in Rain Light Rain
12:53 AM 43.0 °F - 41.0 °F 93% 30.05 in 8.0 mi Calm Calm - 0.01 in Rain Light Rain
1:53 AM 42.1 °F - 41.0 °F 96% 30.04 in 7.0 mi Calm Calm - 0.02 in Rain Light Rain
2:27 AM 42.8 °F - 41.0 °F 93% 30.02 in 8.0 mi Calm Calm - 0.01 in Rain Light Rain
2:43 AM 42.8 °F 41.1 °F 41.0 °F 93% 30.02 in 5.0 mi SSE 3.5 mph - 0.02 in Rain Light Rain
2:53 AM 42.1 °F 39.2 °F 42.1 °F 100% 30.01 in 7.0 mi SE 4.6 mph - 0.02 in Rain Light Rain
3:53 AM 43.0 °F 39.5 °F 42.1 °F 97% 29.97 in 5.0 mi East 5.8 mph - 0.02 in Rain Light Rain
4:27 AM 42.8 °F 41.1 °F 42.8 °F 100% 29.95 in 4.0 mi East 3.5 mph - 0.02 in Rain Light Rain
4:53 AM 44.1 °F - 43.0 °F 96% 29.96 in 5.0 mi Calm Calm - 0.03 in Rain Light Rain
5:38 AM 44.6 °F - 42.8 °F 93% 29.96 in 4.0 mi Calm Calm - 0.03 in Rain Rain
5:53 AM 44.1 °F 41.5 °F 43.0 °F 96% 29.96 in 4.0 mi ENE 4.6 mph - 0.05 in Rain Rain
6:05 AM 44.6 °F 42.2 °F 42.8 °F 93% 29.94 in 4.0 mi East 4.6 mph - 0.01 in Rain Rain
8:53 AM 45.0 °F 41.2 °F 43.0 °F 93% 29.91 in 9.0 mi East 6.9 mph - 0.00 in Rain Light Rain
9:03 AM 44.6 °F 39.7 °F 42.8 °F 93% 29.90 in 10.0 mi East 9.2 mph - 0.00 in Rain Light Rain
9:53 AM 45.0 °F 40.1 °F 42.1 °F 90% 29.89 in 10.0 mi East 9.2 mph - 0.00 in Rain Light Rain
10:53 AM 45.0 °F 41.2 °F 43.0 °F 93% 29.88 in 10.0 mi ESE 6.9 mph - 0.01 in   Overcast
11:53 AM 46.0 °F 43.1 °F 44.1 °F 93% 29.86 in 10.0 mi ESE 5.8 mph - 0.00 in   Overcast
12:14 PM 46.4 °F 42.4 °F 44.6 °F 93% 29.84 in 5.0 mi SE 8.1 mph - N/A   Overcast
12:27 PM 44.6 °F 40.2 °F 44.6 °F 100% 29.84 in 2.0 mi ESE 8.1 mph - 0.00 in Rain Light Rain
12:49 PM 44.6 °F 40.2 °F 44.6 °F 100% 29.82 in 2.0 mi East 8.1 mph - 0.00 in Rain Light Rain
12:53 PM 45.0 °F 41.8 °F 44.1 °F 97% 29.82 in 2.0 mi East 5.8 mph - 0.00 in Rain Light Rain
1:02 PM 46.4 °F 43.5 °F 44.6 °F 93% 29.82 in 2.0 mi East 5.8 mph - 0.00 in Rain Light Rain
1:18 PM 46.4 °F 44.3 °F 44.6 °F 93% 29.82 in 1.8 mi East 4.6 mph - 0.00 in   Overcast
1:27 PM 46.4 °F 44.3 °F 44.6 °F 93% 29.82 in 2.0 mi East 4.6 mph - 0.00 in   Overcast
1:53 PM 46.0 °F 43.1 °F 44.1 °F 93% 29.81 in 2.0 mi East 5.8 mph - 0.00 in   Overcast
2:22 PM 46.4 °F 43.5 °F 44.6 °F 93% 29.80 in 5.0 mi East 5.8 mph - N/A   Overcast
2:46 PM 46.4 °F 42.9 °F 44.6 °F 93% 29.79 in 2.5 mi East 6.9 mph - N/A   Overcast
2:53 PM 46.0 °F 42.5 °F 44.1 °F 93% 29.79 in 2.5 mi East 6.9 mph - N/A   Overcast
3:11 PM 46.4 °F 42.4 °F 44.6 °F 93% 29.78 in 2.5 mi East 8.1 mph - N/A   Overcast
3:35 PM 46.4 °F 42.9 °F 44.6 °F 93% 29.78 in 3.0 mi East 6.9 mph - N/A   Overcast
3:53 PM 46.0 °F 43.9 °F 44.1 °F 93% 29.79 in 5.0 mi East 4.6 mph - N/A   Overcast
4:53 PM 46.0 °F 43.1 °F 44.1 °F 93% 29.79 in 2.5 mi East 5.8 mph - 0.01 in Rain Light Rain
4:59 PM 46.4 °F 42.9 °F 44.6 °F 93% 29.79 in 3.0 mi East 6.9 mph - 0.00 in Rain Light Rain
5:20 PM 44.6 °F 41.4 °F 44.6 °F 100% 29.79 in 2.0 mi East 5.8 mph - 0.00 in Rain Light Rain
5:42 PM 44.6 °F 41.4 °F 44.6 °F 100% 29.79 in 3.0 mi East 5.8 mph - 0.00 in   Overcast
5:51 PM 44.6 °F 41.4 °F 44.6 °F 100% 29.79 in 2.5 mi East 5.8 mph - 0.01 in Rain Light Rain
5:53 PM 45.0 °F 42.6 °F 44.1 °F 97% 29.79 in 3.0 mi East 4.6 mph - 0.01 in Rain Light Rain
6:25 PM 44.6 °F 40.7 °F 44.6 °F 100% 29.80 in 2.5 mi East 6.9 mph - 0.01 in Rain Light Rain
6:41 PM 44.6 °F 40.7 °F 44.6 °F 100% 29.79 in 3.0 mi East 6.9 mph - 0.02 in Rain Light Rain
6:53 PM 45.0 °F 41.8 °F 44.1 °F 97% 29.79 in 5.0 mi East 5.8 mph - 0.02 in Rain Light Rain
7:07 PM 44.6 °F 40.2 °F 42.8 °F 93% 29.79 in 4.0 mi East 8.1 mph - 0.00 in   Overcast
7:17 PM 44.6 °F 41.4 °F 42.8 °F 93% 29.80 in 4.0 mi ENE 5.8 mph - 0.00 in   Overcast
7:40 PM 44.6 °F - 44.6 °F 100% 29.80 in 2.0 mi Calm Calm - 0.01 in Rain Light Rain
7:50 PM 44.6 °F - 44.6 °F 100% 29.80 in 2.5 mi Calm Calm - 0.01 in Rain Light Rain
7:53 PM 45.0 °F - 44.1 °F 97% 29.80 in 2.5 mi Calm Calm - 0.02 in Rain Light Rain
8:15 PM 44.6 °F - 44.6 °F 100% 29.80 in 3.0 mi Calm Calm - 0.00 in Rain Light Rain
8:53 PM 45.0 °F 43.5 °F 44.1 °F 97% 29.78 in 6.0 mi East 3.5 mph - 0.01 in Rain Light Rain
9:53 PM 44.1 °F 40.8 °F 43.0 °F 96% 29.80 in 4.0 mi North 5.8 mph - 0.03 in Rain Rain
10:12 PM 44.6 °F 42.2 °F 42.8 °F 93% 29.79 in 8.0 mi NNE 4.6 mph - 0.01 in Rain Light Rain
10:53 PM 43.0 °F 38.8 °F 41.0 °F 93% 29.80 in 10.0 mi North 6.9 mph - 0.01 in Rain Light Rain
11:38 PM 42.8 °F 40.1 °F 39.2 °F 87% 29.79 in 8.0 mi North 4.6 mph - 0.00 in Rain Light Rain
11:53 PM 42.1 °F 40.2 °F 39.9 °F 92% 29.79 in 8.0 mi NNE 3.5 mph - 0.01 in Rain Light Rain